Regional Weather Roundup
Issued by NWS Little Rock, AR

Home | Current Version | Previous Version | Text Only | Print | Product List | Glossary On
Versions: 1 2 3 4 5 6 7 8 9 10 11 12 13 14 15 16 17 18 19 20 21 22 23 24 25 26 27 28 29 30 31 32 33 34 35 36 37 38 39 40 41 42 43 44 45 46 47 48 49 50
000
ASUS44 KLZK 302305
RWRLZK

WEATHER ROUNDUP FOR ARKANSAS
NATIONAL WEATHER SERVICE LITTLE ROCK AR
600 PM CDT SAT MAY 30 2015

NOTE: "FAIR" INDICATES FEW OR NO CLOUDS BELOW 12,000 FEET WITH NO
SIGNIFICANT WEATHER AND/OR OBSTRUCTIONS TO VISIBILITY.

ARZ001-003-010-029-310000-
NORTHWEST ARKANSAS

CITY           SKY/WX    TMP DP  RH WIND       PRES   REMARKS
FAYETTEVILLE   CLOUDY    66  63  90 NW10      30.06F
FORT SMITH     CLOUDY    71  63  75 NW12      30.02F
HARRISON       PTSUNNY   73  64  73 NW12      30.03R
BENTONVILLE    CLOUDY    64  59  82 NW7       30.08S
ROGERS         CLOUDY    64  61  90 NW8       30.08S
SILOAM SPGS    CLOUDY    64  55  72 NW12      30.09F
HIGHFILL       CLOUDY    65  61  87 NW9       30.07S
SPRINGDALE     CLOUDY    66  63  88 NW10      30.08S
$$

ARZ004-005-016-310000-
NORTH CENTRAL ARKANSAS

CITY           SKY/WX    TMP DP  RH WIND       PRES   REMARKS
BATESVILLE     MOSUNNY   82  66  57 NW7       29.96S HX  85
FLIPPIN        PTSUNNY   77  64  65 NW9       29.98R
MTN HOME       PTSUNNY   77  65  66 VRB5      29.98S
$$

ARZ040-041-310000-
WEST CENTRAL ARKANSAS

CITY           SKY/WX    TMP DP  RH WIND       PRES   REMARKS
MENA           CLOUDY    73  66  78 NW5       30.04S
MOUNT IDA      CLOUDY    75  66  73 CALM      30.00R
$$

ARZ009-017-025-026-028-310000-
NORTHEAST ARKANSAS

CITY           SKY/WX    TMP DP  RH WIND       PRES   REMARKS
CORNING          N/A     77  68  73 W8        29.96F
JONESBORO      PTSUNNY   80  67  64 SW10      29.96S
NEWPORT        MOSUNNY   84  68  58 W7        29.96F HX  87
WALNUT RIDGE   MOSUNNY   79  66  65 NE13      29.96S
BLYTHEVILLE    CLOUDY    78  70  76 NW8       29.97S
$$

ARZ022-023-033-042-044-310000-
CENTRAL ARKANSAS

CITY           SKY/WX    TMP DP  RH WIND       PRES   REMARKS
LITTLE ROCK    CLOUDY    81  64  56 NW10      29.96R
N LITTLE ROCK  CLOUDY    78  69  76 W5        29.96F
JACKSONVILLE   PTSUNNY   79  67  66 W6        29.96S
SEARCY         PTSUNNY   82  69  64 VRB3      29.97F HX  85
HOT SPRINGS    CLOUDY    77  65  66 W6        29.99R
RUSSELLVILLE   MOSUNNY   78  65  63 W8        29.97F
CLINTON        FAIR      81  64  57 NW5       29.98S
$$

ARZ036-310000-
EAST ARKANSAS

CITY           SKY/WX    TMP DP  RH WIND       PRES   REMARKS
WEST MEMPHIS   PTSUNNY   80  68  66 SW3       29.96F
$$

ARZ050-053-066-070-073-310000-
SOUTHWEST ARKANSAS

CITY           SKY/WX    TMP DP  RH WIND       PRES   REMARKS
ARKADELPHIA    LGT RAIN  81  72  74 NW3       29.98S HX  85
CAMDEN         PTSUNNY   81  66  61 E3        29.97F
TEXARKANA      CLOUDY    77  68  73 NW8       29.99F
EL DORADO      MOSUNNY   80  69  69 W6        29.98F
DE QUEEN       CLOUDY    77  66  68 N3        30.00S
$$

ARZ056-057-069-310000-
SOUTHEAST ARKANSAS

CITY           SKY/WX    TMP DP  RH WIND       PRES   REMARKS
PINE BLUFF     CLOUDY    79  65  62 NW3       29.97S
STUTTGART      PTSUNNY   79  66  65 W3        29.97R
MONTICELLO     PTSUNNY   81  72  74 SW5       29.97F HX  85

$$




USA.gov is the U.S. government's official web portal to all federal, state and local government web resources and services.